timestamp,wind_dir_avg,wind_spd_avg,wind_spd_max_dir,wind_spd_gust,battery_voltage,lat,long
2024-04-21 00:04:00+00:00,315.0,0.01,227.0,0.0,12.41,47.59359,-54.27349
2024-04-21 00:14:00+00:00,315.0,0.01,227.0,0.0,12.25,47.59359,-54.27349
2024-04-21 00:24:00+00:00,315.0,0.01,227.0,0.0,12.25,47.59359,-54.27349
2024-04-21 00:34:00+00:00,315.0,0.01,227.0,0.0,12.25,47.59359,-54.27349
2024-04-21 00:44:00+00:00,315.0,0.01,227.0,0.0,12.25,47.59359,-54.27349
2024-04-21 00:54:00+00:00,315.0,0.01,227.0,0.0,12.25,47.59359,-54.27349
2024-04-21 01:04:00+00:00,315.0,0.01,227.0,0.0,12.25,47.59359,-54.27349
2024-04-21 01:14:00+00:00,315.0,0.01,227.0,0.0,12.17,47.59359,-54.27349
2024-04-21 01:24:00+00:00,315.0,0.01,227.0,0.0,12.17,47.59359,-54.27349
2024-04-21 01:34:00+00:00,315.0,0.01,227.0,0.0,12.17,47.59359,-54.27349
2024-04-21 01:44:00+00:00,315.0,0.01,227.0,0.0,12.17,47.59359,-54.27349
2024-04-21 01:54:00+00:00,315.0,0.01,227.0,0.0,12.17,47.59359,-54.27349
2024-04-21 02:04:00+00:00,315.0,0.01,227.0,0.0,12.17,47.59359,-54.27349
2024-04-21 02:14:00+00:00,315.0,0.01,227.0,0.0,12.17,47.59359,-54.27349
2024-04-21 02:24:00+00:00,315.0,0.01,227.0,0.0,12.17,47.59359,-54.27349
2024-04-21 02:34:00+00:00,315.0,0.01,227.0,0.0,12.17,47.59359,-54.27349
2024-04-21 02:44:00+00:00,315.0,0.01,227.0,0.0,12.17,47.59359,-54.27349
2024-04-21 02:54:00+00:00,315.0,0.01,227.0,0.0,12.17,47.59359,-54.27349
2024-04-21 03:04:00+00:00,315.0,0.01,227.0,0.0,12.17,47.59359,-54.27349
2024-04-21 03:14:00+00:00,315.0,0.01,227.0,0.0,12.17,47.59359,-54.27349
2024-04-21 03:24:00+00:00,315.0,0.01,227.0,0.0,12.17,47.59359,-54.27349
2024-04-21 03:34:00+00:00,315.0,0.01,227.0,0.0,12.17,47.59359,-54.27349
2024-04-21 03:44:00+00:00,315.0,0.01,210.0,0.0,12.17,47.59359,-54.27349
2024-04-21 03:54:00+00:00,315.0,0.01,212.0,0.0,12.17,47.59359,-54.27349
2024-04-21 04:04:00+00:00,315.0,0.01,212.0,0.0,12.17,47.59359,-54.27349
2024-04-21 04:14:00+00:00,315.0,0.01,210.0,0.0,12.09,47.59359,-54.27349
2024-04-21 04:24:00+00:00,315.0,0.01,210.0,0.0,12.09,47.59359,-54.27349
2024-04-21 04:34:00+00:00,315.0,0.01,217.0,0.0,12.09,47.59359,-54.27349
2024-04-21 04:44:00+00:00,315.0,0.01,217.0,0.0,12.09,47.59359,-54.27349
2024-04-21 04:54:00+00:00,315.0,0.01,217.0,0.0,12.09,47.59359,-54.27349
2024-04-21 05:04:00+00:00,315.0,0.01,217.0,0.0,12.09,47.59359,-54.27349
2024-04-21 05:14:00+00:00,315.0,0.01,217.0,0.0,12.09,47.59359,-54.27349
2024-04-21 05:24:00+00:00,315.0,0.01,217.0,0.0,12.09,47.59359,-54.27349
2024-04-21 05:34:00+00:00,315.0,0.01,217.0,0.0,12.09,47.59359,-54.27349
2024-04-21 05:44:00+00:00,315.0,0.01,217.0,0.0,12.09,47.59359,-54.27349
2024-04-21 05:54:00+00:00,315.0,0.01,217.0,0.0,12.09,47.59359,-54.27349
2024-04-21 06:04:00+00:00,315.0,0.01,217.0,0.0,12.09,47.59359,-54.27349
2024-04-21 06:14:00+00:00,315.0,0.01,217.0,0.0,12.09,47.59359,-54.27349
2024-04-21 06:24:00+00:00,315.0,0.01,217.0,0.0,12.09,47.59359,-54.27349
2024-04-21 06:34:00+00:00,315.0,0.01,217.0,0.0,12.09,47.59359,-54.27349
2024-04-21 06:44:00+00:00,315.0,0.01,217.0,0.0,12.09,47.59359,-54.27349
2024-04-21 06:54:00+00:00,315.0,0.01,217.0,0.0,12.09,47.59359,-54.27349
2024-04-21 07:04:00+00:00,315.0,0.01,217.0,0.0,12.09,47.59359,-54.27349
2024-04-21 07:14:00+00:00,315.0,0.01,217.0,0.0,12.09,47.59359,-54.27349
2024-04-21 07:24:00+00:00,315.0,0.01,217.0,0.0,12.09,47.59359,-54.27349
2024-04-21 07:34:00+00:00,315.0,0.01,217.0,0.0,12.09,47.59359,-54.27349
2024-04-21 07:44:00+00:00,315.0,0.01,217.0,0.0,12.09,47.59359,-54.27349
2024-04-21 07:54:00+00:00,315.0,0.01,217.0,0.0,12.09,47.59359,-54.27349
2024-04-21 08:04:00+00:00,315.0,0.01,217.0,0.0,12.09,47.59359,-54.27349
2024-04-21 08:14:00+00:00,315.0,0.01,217.0,0.0,12.01,47.59359,-54.27349
2024-04-21 08:24:00+00:00,315.0,0.01,217.0,0.0,12.01,47.59359,-54.27349
2024-04-21 08:34:00+00:00,315.0,0.01,217.0,0.0,12.01,47.59359,-54.27349
2024-04-21 08:44:00+00:00,315.0,0.01,217.0,0.0,12.01,47.59359,-54.27349
2024-04-21 08:54:00+00:00,315.0,0.01,217.0,0.0,12.01,47.59359,-54.27349
2024-04-21 09:04:00+00:00,315.0,0.01,217.0,0.0,12.01,47.59359,-54.27349
2024-04-21 09:14:00+00:00,315.0,0.01,217.0,0.0,12.01,47.59359,-54.27349
2024-04-21 09:24:00+00:00,315.0,0.01,217.0,0.0,12.01,47.59359,-54.27349
2024-04-21 09:34:00+00:00,315.0,0.01,217.0,0.0,12.01,47.59359,-54.27349
2024-04-21 09:44:00+00:00,315.0,0.01,217.0,0.0,12.01,47.59359,-54.27349
2024-04-21 09:54:00+00:00,315.0,0.01,217.0,0.0,12.01,47.59359,-54.27349
2024-04-21 10:04:00+00:00,315.0,0.01,217.0,0.0,12.01,47.59359,-54.27349
2024-04-21 10:14:00+00:00,315.0,0.01,217.0,0.0,12.09,47.59359,-54.27349
2024-04-21 10:24:00+00:00,315.0,0.01,217.0,0.0,12.09,47.59359,-54.27349
2024-04-21 10:34:00+00:00,315.0,0.01,217.0,0.0,12.09,47.59359,-54.27349
2024-04-21 10:44:00+00:00,315.0,0.01,217.0,0.0,12.09,47.59359,-54.27349
2024-04-21 10:54:00+00:00,315.0,0.01,217.0,0.0,12.09,47.59359,-54.27349
2024-04-21 11:04:00+00:00,315.0,0.01,217.0,0.0,12.09,47.59359,-54.27349
2024-04-21 11:14:00+00:00,315.0,0.01,217.0,0.0,12.57,47.59359,-54.27349
2024-04-21 11:24:00+00:00,315.0,0.01,217.0,0.0,12.57,47.59359,-54.27349
2024-04-21 11:34:00+00:00,315.0,0.01,217.0,0.0,12.57,47.59359,-54.27349
2024-04-21 11:44:00+00:00,315.0,0.01,217.0,0.0,12.57,47.59359,-54.27349
2024-04-21 11:54:00+00:00,315.0,0.01,217.0,0.0,12.57,47.59359,-54.27349
2024-04-21 12:04:00+00:00,315.0,0.01,217.0,0.0,12.57,47.59359,-54.27349
2024-04-21 12:14:00+00:00,315.0,0.01,217.0,0.0,13.05,47.59359,-54.27349
2024-04-21 12:24:00+00:00,315.0,0.01,217.0,0.0,13.05,47.59359,-54.27349
2024-04-21 12:34:00+00:00,315.0,0.01,217.0,0.0,13.05,47.59359,-54.27349
2024-04-21 12:44:00+00:00,315.0,0.01,217.0,0.0,13.05,47.59359,-54.27349
2024-04-21 12:54:00+00:00,315.0,0.01,217.0,0.0,13.05,47.59359,-54.27349
2024-04-21 13:04:00+00:00,315.0,0.01,217.0,0.0,13.05,47.59359,-54.27349
2024-04-21 13:14:00+00:00,160.0,17.16,155.0,17.55,13.05,47.59359,-54.27349
2024-04-21 13:24:00+00:00,315.0,0.01,166.0,0.0,13.05,47.59359,-54.27349
2024-04-21 13:34:00+00:00,315.0,0.01,166.0,0.0,13.05,47.59359,-54.27349
2024-04-21 13:44:00+00:00,315.0,0.01,166.0,0.0,13.05,47.59359,-54.27349
2024-04-21 13:54:00+00:00,163.0,13.59,164.0,13.95,13.05,47.59359,-54.27349
2024-04-21 14:04:00+00:00,315.0,0.01,163.0,0.0,13.05,47.59359,-54.27349
2024-04-21 14:14:01+00:00,315.0,0.01,161.0,0.0,12.81,47.59359,-54.27349
2024-04-21 14:24:01+00:00,315.0,0.01,161.0,0.0,12.81,47.59359,-54.27349
2024-04-21 14:34:01+00:00,315.0,0.01,162.0,0.0,12.81,47.59359,-54.27349
2024-04-21 14:44:01+00:00,315.0,0.01,165.0,0.0,12.81,47.59359,-54.27349
2024-04-21 14:54:01+00:00,315.0,0.01,165.0,0.0,12.81,47.59359,-54.27349
2024-04-21 15:04:01+00:00,193.0,16.65,194.0,16.65,12.81,47.59359,-54.27349
2024-04-21 15:14:00+00:00,189.0,15.62,190.0,15.63,12.73,47.59359,-54.27349
2024-04-21 15:24:00+00:00,315.0,0.01,191.0,0.0,12.73,47.59359,-54.27349
2024-04-21 15:34:00+00:00,191.0,15.3,190.0,16.64,12.73,47.59359,-54.27349
2024-04-21 15:44:00+00:00,193.0,14.84,192.0,15.42,12.73,47.59359,-54.27349
2024-04-21 15:54:00+00:00,196.0,12.46,195.0,14.07,12.73,47.59359,-54.27349
2024-04-21 16:04:00+00:00,195.0,14.13,193.0,16.61,12.73,47.59359,-54.27349
2024-04-21 16:14:01+00:00,197.0,12.5,192.0,16.14,13.6,47.59359,-54.27349
2024-04-21 16:24:01+00:00,195.0,13.04,194.0,14.36,13.6,47.59359,-54.27349
2024-04-21 16:34:01+00:00,315.0,0.01,202.0,0.0,13.6,47.59359,-54.27349
2024-04-21 16:44:01+00:00,197.0,11.91,200.0,13.33,13.6,47.59359,-54.27349
2024-04-21 16:54:01+00:00,196.0,10.52,196.0,10.63,13.6,47.59359,-54.27349
2024-04-21 17:04:01+00:00,315.0,0.01,202.0,0.0,13.6,47.59359,-54.27349
2024-04-21 17:14:01+00:00,315.0,0.01,202.0,0.0,13.53,47.59359,-54.27349
2024-04-21 17:24:01+00:00,315.0,0.01,202.0,0.0,13.53,47.59359,-54.27349
2024-04-21 17:34:01+00:00,315.0,0.01,202.0,0.0,13.53,47.59359,-54.27349
2024-04-21 17:44:01+00:00,315.0,0.01,202.0,0.0,13.53,47.59359,-54.27349
2024-04-21 17:54:01+00:00,315.0,0.01,202.0,0.0,13.53,47.59359,-54.27349
2024-04-21 18:04:01+00:00,315.0,0.01,202.0,0.0,13.53,47.59359,-54.27349
2024-04-21 18:14:00+00:00,315.0,0.01,202.0,0.0,13.6,47.59359,-54.27349
2024-04-21 18:24:00+00:00,315.0,0.01,202.0,0.0,13.6,47.59359,-54.27349
2024-04-21 18:34:00+00:00,315.0,0.01,202.0,0.0,13.6,47.59359,-54.27349
2024-04-21 18:44:00+00:00,315.0,0.01,202.0,0.0,13.6,47.59359,-54.27349
2024-04-21 18:54:00+00:00,315.0,0.01,202.0,0.0,13.6,47.59359,-54.27349
2024-04-21 19:04:00+00:00,315.0,0.01,202.0,0.0,13.6,47.59359,-54.27349
2024-04-21 19:14:01+00:00,315.0,0.01,202.0,0.0,13.53,47.59359,-54.27349
2024-04-21 19:24:01+00:00,315.0,0.01,202.0,0.0,13.53,47.59359,-54.27349
2024-04-21 19:34:01+00:00,315.0,0.01,202.0,0.0,13.53,47.59359,-54.27349
2024-04-21 19:44:01+00:00,315.0,0.01,202.0,0.0,13.53,47.59359,-54.27349
2024-04-21 19:54:01+00:00,315.0,0.01,202.0,0.0,13.53,47.59359,-54.27349
2024-04-21 20:04:01+00:00,315.0,0.01,202.0,0.0,13.53,47.59359,-54.27349
2024-04-21 20:14:00+00:00,315.0,0.01,202.0,0.0,13.6,47.59359,-54.27349
2024-04-21 20:24:00+00:00,315.0,0.01,202.0,0.0,13.6,47.59359,-54.27349
2024-04-21 20:34:00+00:00,315.0,0.01,202.0,0.0,13.6,47.59359,-54.27349
2024-04-21 20:44:00+00:00,315.0,0.01,202.0,0.0,13.6,47.59359,-54.27349
2024-04-21 20:54:00+00:00,315.0,0.01,202.0,0.0,13.6,47.59359,-54.27349
2024-04-21 21:04:00+00:00,315.0,0.01,202.0,0.0,13.6,47.59359,-54.27349
2024-04-21 21:14:00+00:00,315.0,0.01,202.0,0.0,13.44,47.59359,-54.27349
2024-04-21 21:24:00+00:00,315.0,0.01,202.0,0.0,13.44,47.59359,-54.27349
2024-04-21 21:34:00+00:00,315.0,0.01,202.0,0.0,13.44,47.59359,-54.27349
2024-04-21 21:44:00+00:00,315.0,0.01,202.0,0.0,13.44,47.59359,-54.27349
2024-04-21 21:54:00+00:00,315.0,0.01,202.0,0.0,13.44,47.59359,-54.27349
2024-04-21 22:04:00+00:00,315.0,0.01,202.0,0.0,13.44,47.59359,-54.27349
2024-04-21 22:14:00+00:00,315.0,0.01,202.0,0.0,13.13,47.59359,-54.27349
2024-04-21 22:24:00+00:00,315.0,0.01,202.0,0.0,13.13,47.59359,-54.27349
2024-04-21 22:34:00+00:00,315.0,0.01,202.0,0.0,13.13,47.59359,-54.27349
2024-04-21 22:44:00+00:00,315.0,0.01,202.0,0.0,13.13,47.59359,-54.27349
2024-04-21 22:54:00+00:00,315.0,0.01,202.0,0.0,13.13,47.59359,-54.27349
2024-04-21 23:04:00+00:00,315.0,0.01,202.0,0.0,13.13,47.59359,-54.27349
2024-04-21 23:14:00+00:00,315.0,0.01,202.0,0.0,12.57,47.59359,-54.27349
2024-04-21 23:24:00+00:00,315.0,0.01,202.0,0.0,12.57,47.59359,-54.27349
2024-04-21 23:34:00+00:00,315.0,0.01,202.0,0.0,12.57,47.59359,-54.27349
2024-04-21 23:44:00+00:00,315.0,0.01,202.0,0.0,12.57,47.59359,-54.27349
2024-04-21 23:54:00+00:00,315.0,0.01,202.0,0.0,12.57,47.59359,-54.27349
